Location: Madrid
(40.4000°N, 3.6830°W)
Time: 15:05:41
(UTC+02:00)

ISS - Pass Details

Date: 31 March 2020
Orbit: 416 x 423 km, 51.6° (Epoch: 02 April)

Event Time Altitude Azimuth Distance (km) Brightness Sun altitude
Rises 21:43:37 0° 312° (NW) 2,360 1.4 -12.9°
Reaches altitude 10° 21:46:12 10° 332° (NNW) 1,496 -0.3 -13.4°
Maximum altitude 21:48:35 18° 18° (NNE) 1,105 -1.6 -13.8°
Enters shadow 21:50:15 13° 53° (NE) 1,306 -1.6 -14.1°
